VIP199 EDDK-EGNM

Flight info

Callsign VIP199
Flight time N/A
Altitude 40000
Route NVO3F NVO Y868 SOGRI L608 DENUT L610 GILDA M14 STOAT L613 HALIF
Aircraft B38M/M-SDE1FGHILORVWXY/HB1

Departure

Time 2026-04-26 09:32
Airport Cologne Bonn Airport (EDDK)

Arrival

Time N/A
Airport Leeds Bradford Airport (EGNM)
Time Latitude Longitude Altitude Speed Heading
2026-04-26 08:47 50.88202 7.11907 235 ft 0 kts 216°
2026-04-26 09:24 50.88202 7.11908 235 ft 1 kts 216°
2026-04-26 09:24 50.88222 7.11930 240 ft 4 kts 212°
2026-04-26 09:24 50.88245 7.11947 237 ft 4 kts 186°
2026-04-26 09:24 50.88270 7.11942 236 ft 4 kts 143°
2026-04-26 09:25 50.88280 7.11927 237 ft 1 kts 125°
2026-04-26 09:25 50.88281 7.11925 237 ft 0 kts 125°
2026-04-26 09:28 50.88280 7.11927 237 ft 1 kts 125°
2026-04-26 09:28 50.88267 7.11955 239 ft 5 kts 126°
2026-04-26 09:29 50.88241 7.12011 235 ft 8 kts 126°
2026-04-26 09:29 50.88202 7.12097 237 ft 11 kts 126°
2026-04-26 09:29 50.88150 7.12211 236 ft 14 kts 126°
2026-04-26 09:29 50.88104 7.12311 237 ft 11 kts 126°
2026-04-26 09:30 50.88056 7.12422 235 ft 14 kts 121°
2026-04-26 09:30 50.88004 7.12564 237 ft 13 kts 120°
2026-04-26 09:30 50.87983 7.12670 235 ft 11 kts 83°
2026-04-26 09:30 50.87991 7.12726 237 ft 3 kts 74°
2026-04-26 09:31 50.87996 7.12754 239 ft 2 kts 74°
2026-04-26 09:31 50.88005 7.12809 240 ft 9 kts 79°
2026-04-26 09:31 50.88005 7.12931 241 ft 13 kts 100°
2026-04-26 09:31 50.87944 7.13057 241 ft 16 kts 137°
2026-04-26 09:32 50.87825 7.13231 241 ft 43 kts 137°
2026-04-26 09:32 50.87417 7.13821 243 ft 113 kts 137°
2026-04-26 09:32 50.86702 7.14868 299 ft 161 kts 136°
2026-04-26 09:32 50.85873 7.16067 918 ft 163 kts 136°
2026-04-26 09:33 50.85021 7.17249 1714 ft 165 kts 139°
2026-04-26 09:33 50.84092 7.18517 2217 ft 190 kts 138°
2026-04-26 09:33 50.83032 7.19981 2783 ft 213 kts 139°
2026-04-26 09:33 50.81881 7.21570 3558 ft 226 kts 137°
2026-04-26 09:34 50.81091 7.22692 4065 ft 235 kts 137°
2026-04-26 09:34 50.79293 7.24685 5287 ft 246 kts 158°
2026-04-26 09:34 50.77591 7.24985 6140 ft 250 kts 192°
2026-04-26 09:34 50.76013 7.23871 7002 ft 253 kts 223°
2026-04-26 09:35 50.75000 7.21675 7898 ft 246 kts 252°
2026-04-26 09:35 50.74749 7.19035 8763 ft 244 kts 279°
2026-04-26 09:35 50.75154 7.16407 9532 ft 254 kts 286°
2026-04-26 09:35 50.75547 7.13580 10086 ft 273 kts 284°
2026-04-26 09:36 50.75819 7.11566 10497 ft 281 kts 284°
2026-04-26 09:36 50.76241 7.08452 11017 ft 300 kts 284°
2026-04-26 09:36 50.76692 7.05134 11519 ft 316 kts 283°
2026-04-26 09:36 50.77162 7.01678 12211 ft 325 kts 283°
2026-04-26 09:37 50.77637 6.98176 13169 ft 328 kts 283°
2026-04-26 09:37 50.78120 6.94616 14031 ft 334 kts 283°
2026-04-26 09:37 50.78609 6.90998 14859 ft 338 kts 283°
2026-04-26 09:37 50.79095 6.87389 15688 ft 343 kts 283°
2026-04-26 09:38 50.79594 6.83683 16516 ft 347 kts 282°
2026-04-26 09:38 50.80100 6.79917 17333 ft 352 kts 282°
2026-04-26 09:38 50.80610 6.76106 18130 ft 357 kts 282°
2026-04-26 09:38 50.81125 6.72249 18865 ft 361 kts 282°
2026-04-26 09:39 50.81645 6.68340 19544 ft 365 kts 282°
2026-04-26 09:39 50.82164 6.64383 20228 ft 369 kts 279°
2026-04-26 09:39 50.82317 6.60325 20899 ft 372 kts 271°
2026-04-26 09:39 50.82366 6.56217 21537 ft 376 kts 271°
2026-04-26 09:40 50.82419 6.52067 22227 ft 379 kts 271°
2026-04-26 09:40 50.82471 6.47878 22867 ft 383 kts 271°
2026-04-26 09:40 50.82522 6.43638 23496 ft 387 kts 271°
2026-04-26 09:40 50.82572 6.39365 24075 ft 391 kts 271°
2026-04-26 09:41 50.82622 6.35051 24602 ft 394 kts 271°
2026-04-26 09:41 50.82670 6.30708 25149 ft 396 kts 271°
2026-04-26 09:41 50.82716 6.26336 25682 ft 399 kts 271°
2026-04-26 09:41 50.82761 6.21934 26187 ft 402 kts 271°
2026-04-26 09:42 50.82805 6.17490 26683 ft 405 kts 271°
2026-04-26 09:42 50.82847 6.13017 27203 ft 408 kts 271°
2026-04-26 09:42 50.82888 6.08517 27694 ft 410 kts 271°
2026-04-26 09:42 50.82928 6.03993 28213 ft 412 kts 271°
2026-04-26 09:43 50.82882 5.99451 28678 ft 415 kts 269°
2026-04-26 09:43 50.82810 5.94867 29148 ft 418 kts 269°
2026-04-26 09:43 50.82722 5.90255 29609 ft 421 kts 269°
2026-04-26 09:43 50.82619 5.85623 30047 ft 423 kts 269°
2026-04-26 09:44 50.82516 5.80951 30485 ft 426 kts 269°
2026-04-26 09:44 50.82412 5.76250 30860 ft 428 kts 269°
2026-04-26 09:44 50.82306 5.71527 31239 ft 431 kts 269°
2026-04-26 09:44 50.82198 5.66788 31611 ft 433 kts 269°
2026-04-26 09:45 50.82090 5.62022 31969 ft 435 kts 269°
2026-04-26 09:45 50.81980 5.57230 32360 ft 437 kts 269°
2026-04-26 09:45 50.81868 5.52423 32721 ft 439 kts 269°
2026-04-26 09:45 50.81753 5.47585 33069 ft 441 kts 269°
2026-04-26 09:46 50.81635 5.42734 33521 ft 441 kts 269°
2026-04-26 09:46 50.81516 5.37908 34037 ft 439 kts 269°
2026-04-26 09:46 50.81395 5.33081 34502 ft 438 kts 269°
2026-04-26 09:46 50.81273 5.28281 34916 ft 437 kts 269°
2026-04-26 09:47 50.81149 5.23484 35320 ft 436 kts 269°
2026-04-26 09:47 50.81023 5.18694 35717 ft 436 kts 269°
2026-04-26 09:47 50.80895 5.13911 36101 ft 435 kts 269°
2026-04-26 09:47 50.80767 5.09148 36533 ft 433 kts 269°
2026-04-26 09:48 50.80845 5.04414 36885 ft 430 kts 281°
2026-04-26 09:48 50.81631 4.99872 37277 ft 428 kts 287°
2026-04-26 09:48 50.82452 4.95334 37553 ft 429 kts 286°
2026-04-26 09:48 50.83283 4.90808 37877 ft 429 kts 287°
2026-04-26 09:49 50.84127 4.86287 38202 ft 428 kts 287°
2026-04-26 09:49 50.84979 4.81767 38517 ft 428 kts 287°
2026-04-26 09:49 50.85819 4.77318 38815 ft 428 kts 287°
2026-04-26 09:49 50.86669 4.72814 39088 ft 427 kts 287°
2026-04-26 09:50 50.87518 4.68304 39315 ft 427 kts 287°
2026-04-26 09:50 50.88365 4.63797 39575 ft 426 kts 287°
2026-04-26 09:50 50.89207 4.59304 39806 ft 425 kts 287°
2026-04-26 09:50 50.90094 4.54836 40022 ft 425 kts 293°
2026-04-26 09:51 50.91507 4.50745 40215 ft 423 kts 301°
2026-04-26 09:51 50.94528 4.42707 40310 ft 426 kts 301°
2026-04-26 09:52 50.97574 4.34651 40319 ft 425 kts 298°
2026-04-26 09:52 51.00493 4.21410 40312 ft 425 kts 288°
2026-04-26 09:53 51.02346 4.12490 40321 ft 426 kts 289°
2026-04-26 09:53 51.04204 4.03565 40329 ft 425 kts 289°
2026-04-26 09:54 51.06058 3.94627 40327 ft 425 kts 288°
2026-04-26 09:54 51.07904 3.85682 40323 ft 425 kts 288°
2026-04-26 09:55 51.09743 3.76741 40323 ft 425 kts 289°
2026-04-26 09:55 51.11573 3.67794 40334 ft 425 kts 288°
2026-04-26 09:56 51.13384 3.58902 40335 ft 425 kts 288°
2026-04-26 09:56 51.15200 3.49947 40334 ft 425 kts 288°
2026-04-26 09:57 51.17011 3.40976 40334 ft 425 kts 288°
2026-04-26 09:57 51.18813 3.32008 40332 ft 425 kts 289°
2026-04-26 09:58 51.20605 3.23051 40338 ft 424 kts 288°
2026-04-26 09:58 51.22390 3.14082 40346 ft 424 kts 288°
2026-04-26 09:59 51.24167 3.05115 40343 ft 424 kts 288°
2026-04-26 09:59 51.25936 2.96147 40344 ft 424 kts 288°
2026-04-26 10:00 51.27700 2.87165 40347 ft 423 kts 288°
2026-04-26 10:00 51.29453 2.78192 40336 ft 423 kts 288°
2026-04-26 10:01 51.31190 2.69261 40349 ft 423 kts 288°
2026-04-26 10:01 51.32929 2.60282 40344 ft 423 kts 288°
2026-04-26 10:02 51.34664 2.51281 40341 ft 423 kts 288°
2026-04-26 10:02 51.36391 2.42275 40339 ft 423 kts 288°
2026-04-26 10:03 51.38110 2.33266 40340 ft 423 kts 288°
2026-04-26 10:03 51.39823 2.24249 40343 ft 423 kts 288°
2026-04-26 10:04 51.41529 2.15227 40347 ft 423 kts 288°
2026-04-26 10:04 51.43227 2.06202 40346 ft 423 kts 288°
2026-04-26 10:05 51.44704 1.97075 40355 ft 423 kts 282°
2026-04-26 10:05 51.45825 1.87788 40340 ft 424 kts 282°
2026-04-26 10:06 51.46901 1.78552 40344 ft 424 kts 282°
2026-04-26 10:06 51.47980 1.69198 40345 ft 424 kts 281°
2026-04-26 10:07 51.49039 1.59952 40348 ft 424 kts 281°
2026-04-26 10:07 51.50098 1.50632 40347 ft 424 kts 281°
2026-04-26 10:08 51.51148 1.41317 40341 ft 424 kts 281°
2026-04-26 10:08 51.52189 1.32021 40344 ft 423 kts 281°
2026-04-26 10:09 51.53223 1.22725 40346 ft 423 kts 281°
2026-04-26 10:09 51.54248 1.13420 40346 ft 423 kts 281°
2026-04-26 10:10 51.55267 1.04112 40347 ft 423 kts 281°
2026-04-26 10:10 51.56278 0.94798 40324 ft 423 kts 280°
2026-04-26 10:11 51.57282 0.85478 40358 ft 423 kts 280°
2026-04-26 10:11 51.58278 0.76158 40347 ft 422 kts 280°
2026-04-26 10:12 51.59266 0.66838 40346 ft 423 kts 280°
2026-04-26 10:12 51.59896 0.62225 40334 ft 422 kts 291°
2026-04-26 10:12 51.61263 0.58091 40337 ft 420 kts 306°
2026-04-26 10:13 51.65233 0.51153 40356 ft 424 kts 318°
2026-04-26 10:13 51.69667 0.44942 40323 ft 425 kts 317°
2026-04-26 10:14 51.74127 0.38633 40338 ft 426 kts 317°
2026-04-26 10:14 51.78578 0.32312 40345 ft 426 kts 317°
2026-04-26 10:15 51.83027 0.25975 40352 ft 426 kts 316°
2026-04-26 10:15 51.87472 0.19627 40347 ft 426 kts 316°
2026-04-26 10:16 51.91919 0.13259 40345 ft 426 kts 316°
2026-04-26 10:16 51.96356 0.06887 40343 ft 426 kts 316°
2026-04-26 10:17 52.00794 0.00499 40339 ft 426 kts 316°
2026-04-26 10:17 52.03117 -0.02473 40210 ft 424 kts 327°
2026-04-26 10:17 52.05716 -0.04763 39538 ft 426 kts 328°
2026-04-26 10:18 52.08322 -0.07076 38856 ft 427 kts 328°
2026-04-26 10:18 52.10935 -0.09380 38116 ft 427 kts 328°
2026-04-26 10:18 52.13550 -0.11678 37338 ft 428 kts 328°
2026-04-26 10:18 52.16175 -0.13984 36586 ft 429 kts 328°
2026-04-26 10:19 52.18801 -0.16292 35839 ft 430 kts 328°
2026-04-26 10:19 52.21437 -0.18612 35106 ft 431 kts 328°
2026-04-26 10:19 52.24075 -0.20937 34373 ft 431 kts 328°
2026-04-26 10:19 52.26720 -0.23270 33521 ft 433 kts 328°
2026-04-26 10:20 52.29333 -0.25579 32710 ft 434 kts 328°
2026-04-26 10:20 52.31119 -0.27160 32275 ft 431 kts 328°
2026-04-26 10:20 52.34588 -0.30232 31527 ft 425 kts 328°
2026-04-26 10:20 52.37178 -0.32531 30939 ft 422 kts 328°
2026-04-26 10:21 52.39751 -0.34816 30383 ft 418 kts 328°
2026-04-26 10:21 52.42296 -0.37080 29743 ft 415 kts 328°
2026-04-26 10:21 52.44005 -0.38602 29328 ft 412 kts 328°
2026-04-26 10:21 52.46482 -0.40811 28728 ft 409 kts 328°
2026-04-26 10:22 52.48968 -0.43031 28147 ft 406 kts 328°
2026-04-26 10:22 52.51438 -0.45238 27571 ft 403 kts 328°
2026-04-26 10:22 52.53893 -0.47436 27029 ft 400 kts 328°
2026-04-26 10:22 52.56325 -0.49615 26495 ft 397 kts 328°
2026-04-26 10:23 52.58741 -0.51783 25960 ft 395 kts 328°
2026-04-26 10:23 52.61143 -0.53942 25445 ft 392 kts 328°
2026-04-26 10:23 52.63533 -0.56091 24928 ft 390 kts 328°
2026-04-26 10:23 52.65909 -0.58232 24444 ft 388 kts 328°
2026-04-26 10:24 52.68266 -0.60357 23946 ft 386 kts 328°
2026-04-26 10:24 52.70613 -0.62476 23400 ft 384 kts 328°
2026-04-26 10:24 52.72947 -0.64587 22860 ft 381 kts 328°
2026-04-26 10:24 52.75266 -0.66686 22351 ft 379 kts 328°
2026-04-26 10:25 52.77571 -0.68776 21870 ft 376 kts 328°
2026-04-26 10:25 52.79854 -0.70847 21404 ft 373 kts 328°
2026-04-26 10:25 52.82126 -0.72911 20916 ft 372 kts 328°
2026-04-26 10:25 52.84385 -0.74966 20446 ft 370 kts 328°
2026-04-26 10:26 52.86634 -0.77014 19984 ft 368 kts 328°
2026-04-26 10:26 52.88873 -0.79056 19526 ft 366 kts 328°
2026-04-26 10:26 52.91101 -0.81090 19086 ft 365 kts 328°
2026-04-26 10:26 52.93315 -0.83113 18647 ft 363 kts 328°
2026-04-26 10:27 52.95524 -0.85133 18160 ft 361 kts 328°
2026-04-26 10:27 52.97716 -0.87140 17689 ft 359 kts 328°
2026-04-26 10:27 52.99896 -0.89138 17212 ft 357 kts 328°
2026-04-26 10:27 53.02061 -0.91126 16855 ft 352 kts 328°
2026-04-26 10:28 53.04204 -0.93095 16600 ft 353 kts 328°
2026-04-26 10:28 53.06355 -0.95074 16362 ft 353 kts 328°
2026-04-26 10:28 53.08501 -0.97050 16321 ft 353 kts 328°
2026-04-26 10:28 53.10649 -0.99031 16321 ft 353 kts 328°
2026-04-26 10:29 53.12799 -1.01015 16327 ft 353 kts 328°
2026-04-26 10:29 53.14946 -1.03000 16328 ft 354 kts 328°
2026-04-26 10:29 53.17101 -1.04992 16329 ft 355 kts 328°
2026-04-26 10:29 53.19261 -1.06991 16329 ft 355 kts 328°
2026-04-26 10:30 53.21417 -1.08991 16330 ft 355 kts 328°
2026-04-26 10:30 53.23562 -1.10982 16334 ft 349 kts 328°
2026-04-26 10:30 53.25669 -1.12939 16344 ft 343 kts 328°
2026-04-26 10:30 53.27746 -1.14872 16340 ft 341 kts 328°
2026-04-26 10:31 53.29785 -1.16770 16335 ft 337 kts 328°
2026-04-26 10:31 53.31811 -1.18659 16305 ft 329 kts 328°
2026-04-26 10:31 53.33805 -1.20520 15801 ft 331 kts 328°
2026-04-26 10:31 53.35838 -1.22419 15226 ft 336 kts 328°
2026-04-26 10:32 53.37843 -1.24386 14855 ft 332 kts 322°
2026-04-26 10:32 53.39608 -1.26851 14374 ft 331 kts 316°
2026-04-26 10:32 53.41334 -1.29477 13690 ft 338 kts 315°
2026-04-26 10:32 53.43065 -1.32134 13236 ft 336 kts 315°
2026-04-26 10:33 53.44784 -1.34782 12789 ft 334 kts 315°
2026-04-26 10:33 53.46489 -1.37412 12377 ft 332 kts 315°
2026-04-26 10:33 53.48179 -1.40034 11945 ft 330 kts 315°
2026-04-26 10:33 53.49854 -1.42655 11519 ft 328 kts 315°
2026-04-26 10:34 53.51521 -1.45254 11116 ft 326 kts 315°
2026-04-26 10:34 53.53172 -1.47821 10837 ft 320 kts 315°
2026-04-26 10:34 53.54774 -1.50337 10666 ft 310 kts 314°
2026-04-26 10:34 53.56339 -1.52758 10515 ft 301 kts 315°
2026-04-26 10:35 53.57858 -1.55096 10382 ft 291 kts 315°
2026-04-26 10:35 53.59300 -1.57363 10178 ft 285 kts 315°
2026-04-26 10:35 53.60730 -1.59660 9803 ft 283 kts 315°
2026-04-26 10:35 53.62141 -1.61909 9667 ft 275 kts 315°
2026-04-26 10:36 53.63509 -1.64118 9380 ft 272 kts 315°
2026-04-26 10:36 53.64872 -1.66308 9083 ft 269 kts 315°
2026-04-26 10:36 53.66222 -1.68503 8723 ft 270 kts 314°
2026-04-26 10:36 53.67575 -1.70681 8432 ft 267 kts 315°
2026-04-26 10:37 53.68913 -1.72855 8107 ft 267 kts 315°
2026-04-26 10:37 53.70250 -1.75028 7798 ft 266 kts 315°
2026-04-26 10:37 53.71582 -1.77184 7517 ft 264 kts 315°
2026-04-26 10:37 53.72886 -1.79293 7424 ft 255 kts 315°
2026-04-26 10:38 53.74156 -1.81354 7105 ft 255 kts 315°
2026-04-26 10:38 53.75458 -1.83466 6632 ft 262 kts 315°
2026-04-26 10:38 53.76775 -1.85579 6357 ft 260 kts 315°
2026-04-26 10:38 53.78084 -1.87690 6038 ft 260 kts 315°
2026-04-26 10:39 53.79431 -1.89711 5730 ft 259 kts 324°
2026-04-26 10:39 53.81080 -1.90954 5415 ft 261 kts 340°
2026-04-26 10:39 53.82784 -1.91895 5130 ft 260 kts 340°
2026-04-26 10:39 53.84508 -1.92813 4964 ft 253 kts 340°
2026-04-26 10:40 53.86169 -1.93702 4745 ft 248 kts 340°
2026-04-26 10:40 53.87786 -1.94578 4539 ft 244 kts 340°
2026-04-26 10:40 53.89377 -1.95438 4397 ft 235 kts 340°
2026-04-26 10:40 53.90911 -1.96254 4273 ft 227 kts 340°
2026-04-26 10:41 53.92435 -1.96974 3965 ft 230 kts 349°
2026-04-26 10:41 53.94034 -1.97086 3738 ft 229 kts 359°
2026-04-26 10:41 53.95634 -1.97006 3589 ft 231 kts 360°
2026-04-26 10:41 53.97237 -1.96856 3484 ft 231 kts
2026-04-26 10:42 53.98677 -1.95697 3422 ft 231 kts 43°
2026-04-26 10:42 53.99529 -1.93451 3373 ft 227 kts 76°
2026-04-26 10:42 53.99731 -1.90842 3362 ft 217 kts 89°
2026-04-26 10:42 53.99773 -1.88338 3263 ft 206 kts 99°
2026-04-26 10:43 53.99289 -1.86165 3135 ft 192 kts 129°
2026-04-26 10:43 53.98442 -1.84489 3065 ft 185 kts 138°
2026-04-26 10:43 53.97534 -1.82983 3021 ft 175 kts 140°
2026-04-26 10:43 53.96678 -1.81627 3011 ft 164 kts 142°
2026-04-26 10:44 53.95844 -1.80331 2980 ft 162 kts 142°
2026-04-26 10:44 53.95014 -1.79045 2986 ft 161 kts 142°
2026-04-26 10:44 53.94180 -1.77755 2854 ft 164 kts 142°
2026-04-26 10:45 53.91873 -1.74192 2235 ft 141 kts 141°
2026-04-26 10:45 53.91160 -1.73092 1993 ft 136 kts 140°
2026-04-26 10:45 53.90471 -1.72031 1765 ft 133 kts 140°
2026-04-26 10:46 53.89780 -1.70968 1537 ft 134 kts 139°
2026-04-26 10:46 53.89096 -1.69915 1304 ft 133 kts 138°
2026-04-26 10:46 53.88405 -1.68852 1089 ft 134 kts 139°
2026-04-26 10:46 53.88173 -1.68495 1021 ft 133 kts 138°